Вернуться в каталог

ARIANE 44LP DEB

LostGTO
NORAD 39705·DEBRIS·🇫🇷 France

Запущен Sep 10, 1992 с Guiana Space Centre

Loading…

TLE

УстаревшееSource: Space-Track

Эпоха: Apr 2, 2024, 18:56 UTC

1 39705U 92060G   24093.78953135 -.00000618  00000-0 -48648-1 0  9998
2 39705   8.7872  30.2285 7139513 263.2333  18.4753  2.11815877 80342

Отслеживайте ARIANE 44LP DEB в реальном времени с AllMySat

Download on the App Store